Fort Myers, FL

3:53 PM EDT on June 25, 2018 (GMT -0400)
Page

Weather History for KFMY - August, 2017

Change the Weather History Date:

Sunday, August 13, 2017

  Actual Average Record
Temperature  
Mean Temperature 85 °F 83 °F  
Max Temperature 93 °F 92 °F 97 °F (1942)
Min Temperature 77 °F 75 °F 68 °F (1908)
Degree Days  
Heating Degree Days 0 0  
Month to date heating degree days 0 0  
Since 1 June heating degree days 0 0  
Since 1 July heating degree days 0 0  
Cooling Degree Days 20 18  
Month to date cooling degree days 259 234  
Year to date cooling degree days 2625 2389  
Since 1 June cooling degree days 1343 1323  
Growing Degree Days 34 (Base 50)    
Moisture  
Dew Point 77 °F    
Average Humidity 77    
Maximum Humidity 100    
Minimum Humidity 60    
Precipitation  
Precipitation 0.00 in 0.34 in 3.89 in (1990)
Month to date precipitation 0.89 4.15  
Year to date precipitation 30.69 35.08  
Sea Level Pressure  
Sea Level Pressure 29.99 in    
Wind  
Wind Speed 5 mph (WSW)    
Max Wind Speed 15 mph    
Max Gust Speed 19 mph    
Visibility 10 miles    
Events      
T = Trace of Precipitation, MM = Missing Value Source: NWS Daily Summary

Daily Weather History Graph

Daily Weather History Graph

Search for Another Location

Airport or City:

Astronomy

Aug. 13, 2017 Rise Set
Actual Time 6:58 AM EDT 8:05 PM EDT
Civil Twilight 6:34 AM EDT 8:29 PM EDT
Nautical Twilight 6:05 AM EDT 8:58 PM EDT
Astronomical Twilight 5:35 AM EDT 9:28 PM EDT
Moon No Moon Rise 12:24 PM EDT (8/13)
Length of Visible Light 13h 55m
Length of Day
13h 06m
Waning Gibbous, 65% of the Moon is Illuminated
Aug 13
Waning Gibbous
Aug 14
Last Quarter
Aug 21
New
Aug 29
First Quarter
Sep 6
Full

Hourly Weather History & Observations

Time (EDT) Temp. Heat Index Dew Point Humidity Pressure Visibility Wind Dir Wind Speed Gust Speed Precip Events Conditions
12:53 AM 79.0 °F - 75.9 °F 90% 30.00 in 10.0 mi SSE 4.6 mph - N/A   Clear
1:53 AM 78.1 °F - 75.9 °F 93% 29.99 in 10.0 mi SSE 4.6 mph - N/A   Clear
2:53 AM 77.0 °F - 77.0 °F 100% 29.97 in 10.0 mi East 4.6 mph - N/A   Clear
3:53 AM 77.0 °F - 75.9 °F 96% 29.96 in 10.0 mi Calm Calm - N/A   Clear
4:53 AM 78.1 °F - 75.9 °F 93% 29.96 in 10.0 mi Calm Calm - N/A   Clear
5:53 AM 77.0 °F - 75.9 °F 96% 29.96 in 10.0 mi Calm Calm - N/A   Clear
6:53 AM 77.0 °F - 77.0 °F 100% 29.98 in 10.0 mi Calm Calm - N/A   Clear
7:53 AM 79.0 °F - 78.1 °F 97% 30.00 in 10.0 mi Calm Calm - N/A   Clear
8:53 AM 82.0 °F 91.0 °F 78.1 °F 88% 30.01 in 10.0 mi Calm Calm - N/A   Clear
9:53 AM 87.1 °F 99.8 °F 78.1 °F 74% 30.02 in 10.0 mi Calm Calm - N/A   Clear
10:41 AM 88.0 °F 100.2 °F 77.0 °F 70% 30.02 in 10.0 mi SW 5.8 mph - N/A   Mostly Cloudy
10:51 AM 89.6 °F 104.7 °F 78.8 °F 70% 30.02 in 10.0 mi Calm Calm - N/A   Mostly Cloudy
10:53 AM 88.0 °F 101.3 °F 78.1 °F 72% 30.03 in 10.0 mi WNW 3.5 mph - N/A   Mostly Cloudy
11:53 AM 88.0 °F 98.5 °F 75.9 °F 67% 30.02 in 10.0 mi Calm Calm - N/A   Scattered Clouds
12:53 PM 91.0 °F 101.6 °F 75.0 °F 59% 30.01 in 10.0 mi SSW 3.5 mph - N/A   Scattered Clouds
1:53 PM 91.9 °F 103.2 °F 75.0 °F 58% 29.99 in 10.0 mi WSW 10.4 mph - N/A   Partly Cloudy
2:53 PM 91.9 °F 105.9 °F 77.0 °F 62% 29.98 in 10.0 mi WSW 9.2 mph - N/A   Clear
3:53 PM 91.9 °F 103.9 °F 75.9 °F 59% 29.96 in 10.0 mi SW 9.2 mph - N/A   Clear
4:53 PM 91.0 °F 104.2 °F 77.0 °F 63% 29.96 in 10.0 mi WSW 12.7 mph - N/A   Clear
5:53 PM 91.0 °F 102.9 °F 75.9 °F 61% 29.96 in 10.0 mi WSW 10.4 mph - N/A   Clear
6:53 PM 89.1 °F 100.2 °F 75.9 °F 65% 29.96 in 10.0 mi West 10.4 mph - N/A   Clear
7:53 PM 87.1 °F 97.3 °F 75.9 °F 69% 29.98 in 10.0 mi West 8.1 mph - N/A   Clear
8:53 PM 86.0 °F 96.0 °F 75.9 °F 72% 30.00 in 10.0 mi West 8.1 mph - N/A   Clear
9:53 PM 86.0 °F 96.9 °F 77.0 °F 74% 30.01 in 10.0 mi WNW 5.8 mph - N/A   Clear
10:53 PM 84.9 °F 95.3 °F 77.0 °F 77% 30.02 in 10.0 mi NNW 5.8 mph - N/A   Clear
11:53 PM 84.0 °F 94.8 °F 78.1 °F 82% 30.02 in 10.0 mi East 3.5 mph - N/A   Clear